Yakima, WA

10:43 PM PST on February 19, 2017 (GMT -0800)
Yakima Air Term-McAllister

Weather History for KYKM - July, 2013

Change the Weather History Date:

Thursday, July 11, 2013

  Actual Average Record
Temperature  
Mean Temperature 72 °F 70 °F  
Max Temperature 90 °F 87 °F 104 °F (2002)
Min Temperature 53 °F 53 °F 38 °F (1974)
Degree Days  
Heating Degree Days 0 1  
Month to date heating degree days 0 11  
Since 1 June heating degree days 39 109  
Since 1 July heating degree days 0 11  
Cooling Degree Days 7 6  
Month to date cooling degree days 147 53  
Year to date cooling degree days 315 138  
Since 1 June cooling degree days 263 118  
Growing Degree Days 22 (Base 50)    
Moisture  
Dew Point 39 °F    
Average Humidity 45    
Maximum Humidity 77    
Minimum Humidity 12    
Precipitation  
Precipitation 0.00 in 0.01 in 0.06 in (1975)
Month to date precipitation T 0.11  
Year to date precipitation 4.17 4.40  
Snow  
Snow 0.00 in 0.00 in 9.00 in (2006)
Month to date snowfall 0.0 0.0  
Year to date snowfall 1.1 8.6  
Since 1 July snowfall 0.0 0.0  
Snow Depth 0.00 in    
Sea Level Pressure  
Sea Level Pressure 29.86 in    
Wind  
Wind Speed 8 mph (NW)    
Max Wind Speed 20 mph    
Max Gust Speed 25 mph    
Visibility 10 miles    
Events      
T = Trace of Precipitation, MM = Missing Value Source: NWS Daily Summary

Daily Weather History Graph

Daily Weather History Graph

Search for Another Location

Airport or City:

Trip Planner

Search our weather history database for the weather conditions in past years. The results will help you decide how hot, cold, wet, or windy it might be!

Date:

Astronomy

Jul. 11, 2013 Rise Set
Actual Time 5:20 AM PDT 8:54 PM PDT
Civil Twilight 4:42 AM PDT 9:32 PM PDT
Nautical Twilight 3:51 AM PDT 10:22 PM PDT
Astronomical Twilight 2:44 AM PDT 11:29 PM PDT
Moon 8:59 AM PDT (7/11) 10:20 PM PDT (7/11)
Length of Visible Light 16h 49m
Length of Day
15h 33m
Waxing Crescent, 11% of the Moon is Illuminated
Jul 11
Waxing Crescent
Jul 15
First Quarter
Jul 22
Full
Jul 29
Last Quarter
Aug 6
New

Hourly Weather History & Observations

Time (PDT) Temp. Dew Point Humidity Pressure Visibility Wind Dir Wind Speed Gust Speed Precip Events Conditions
12:53 AM 66.9 °F 46.9 °F 49% 29.84 in 10.0 mi Calm Calm - N/A   Clear
1:53 AM 66.0 °F 46.0 °F 48% 29.85 in 10.0 mi NNW 4.6 mph - N/A   Clear
2:53 AM 64.9 °F 45.0 °F 48% 29.85 in 10.0 mi NNW 6.9 mph - N/A   Clear
3:53 AM 55.9 °F 46.0 °F 69% 29.87 in 10.0 mi West 4.6 mph - N/A   Clear
4:53 AM 54.0 °F 45.0 °F 72% 29.88 in 10.0 mi WNW 4.6 mph - N/A   Clear
5:53 AM 54.0 °F 46.0 °F 75% 29.89 in 10.0 mi West 8.1 mph - N/A   Clear
6:53 AM 63.0 °F 46.0 °F 54% 29.90 in 10.0 mi West 3.5 mph - N/A   Clear
7:53 AM 70.0 °F 43.0 °F 38% 29.89 in 10.0 mi North 6.9 mph - N/A   Clear
8:53 AM 73.0 °F 39.9 °F 30% 29.89 in 10.0 mi North 9.2 mph - N/A   Clear
9:53 AM 75.9 °F 39.9 °F 27% 29.89 in 10.0 mi North 6.9 mph - N/A   Clear
10:53 AM 79.0 °F 35.1 °F 20% 29.88 in 10.0 mi Calm Calm - N/A   Clear
11:53 AM 82.0 °F 34.0 °F 18% 29.88 in 10.0 mi NW 5.8 mph - N/A   Clear
12:53 PM 84.0 °F 28.9 °F 14% 29.86 in 10.0 mi Calm Calm - N/A   Clear
1:53 PM 84.9 °F 27.0 °F 12% 29.85 in 10.0 mi Calm Calm - N/A   Clear
2:53 PM 87.1 °F 30.0 °F 13% 29.83 in 10.0 mi East 4.6 mph - N/A   Clear
3:53 PM 89.1 °F 32.0 °F 13% 29.82 in 10.0 mi West 6.9 mph - N/A   Clear
4:53 PM 87.1 °F 30.9 °F 13% 29.81 in 10.0 mi NNE 13.8 mph - N/A   Clear
5:53 PM 86.0 °F 32.0 °F 14% 29.81 in 10.0 mi North 13.8 mph - N/A   Clear
6:53 PM 82.9 °F 33.1 °F 17% 29.81 in 10.0 mi North 18.4 mph 23.0 mph N/A   Clear
7:53 PM 79.0 °F 37.0 °F 22% 29.82 in 10.0 mi NNW 15.0 mph - N/A   Clear
8:53 PM 73.0 °F 39.0 °F 29% 29.84 in 10.0 mi NW 9.2 mph - N/A   Clear
9:53 PM 70.0 °F 41.0 °F 35% 29.86 in 10.0 mi NW 12.7 mph - N/A   Clear
10:53 PM 68.0 °F 43.0 °F 40% 29.87 in 10.0 mi NNW 12.7 mph - N/A   Clear
11:53 PM 66.9 °F 43.0 °F 42% 29.88 in 10.0 mi WNW 5.8 mph - N/A   Clear